| time (UTC) | temp F | wind direction | speed MPH | gust MPH | rain 1hr in | rain 24hr in | rain mn in | humidity % | barometer mb |
| 20260503012541 | 47 | 0.0 | 0.0 | 0.00 | 0.00 | 0.00 | 82 | 1016.3 | |
| 20260503011538 | 48 | 0.0 | 0.0 | 0.00 | 0.00 | 0.00 | 81 | 1016.3 | |
| 20260503010534 | 48 | 0.0 | 0.0 | 0.00 | 0.00 | 0.00 | 81 | 1016.4 | |
| 20260503005526 | 49 | 0.0 | 0.0 | 0.00 | 0.00 | 0.00 | 80 | 1016.5 | |
| 20260503004522 | 49 | 0.0 | 0.0 | 0.00 | 0.00 | 0.00 | 79 | 1016.4 | |
| 20260503003519 | 49 | 0.0 | 0.0 | 0.00 | 0.00 | 0.00 | 78 | 1016.5 | |
| 20260503002519 | 50 | 0.0 | 0.0 | 0.00 | 0.00 | 0.00 | 76 | 1016.5 | |
| 20260503001616 | 50 | 0.0 | 0.0 | 0.00 | 0.00 | 0.00 | 76 | 1016.6 | |
| 20260503000609 | 50 | 0.0 | 0.0 | 0.00 | 0.00 | 0.00 | 77 | 1016.6 | |
| 20260502235606 | 50 | 0.0 | 0.0 | 0.00 | 0.00 | 0.00 | 77 | 1016.6 | |
| 20260502234606 | 50 | 0.0 | 0.0 | 0.00 | 0.00 | 0.00 | 77 | 1016.6 | |
| 20260502233602 | 50 | 0.0 | 0.0 | 0.00 | 0.00 | 0.00 | 75 | 1016.7 | |
| 20260502232555 | 50 | 0.0 | 0.0 | 0.00 | 0.00 | 0.00 | 76 | 1016.8 | |
| 20260502231550 | 50 | 0.0 | 0.0 | 0.00 | 0.00 | 0.00 | 77 | 1016.8 | |
| 20260502230552 | 51 | 0.0 | 0.0 | 0.00 | 0.00 | 0.00 | 76 | 1016.9 | |
| 20260502225552 | 51 | 0.0 | 0.0 | 0.00 | 0.00 | 0.00 | 74 | 1017.0 | |
| 20260502224541 | 52 | 0.0 | 0.0 | 0.00 | 0.00 | 0.00 | 73 | 1016.9 | |
| 20260502223537 | 52 | 0.0 | 0.0 | 0.00 | 0.00 | 0.00 | 72 | 1017.0 | |
| 20260502222532 | 54 | 0.0 | 0.0 | 0.00 | 0.00 | 0.00 | 67 | 1017.1 | |
| 20260502221532 | 54 | 0.0 | 0.0 | 0.00 | 0.00 | 0.00 | 66 | 1017.2 | |
| 20260502220524 | 54 | 0.0 | 2.0 | 0.00 | 0.00 | 0.00 | 66 | 1017.1 | |
| 20260502215523 | 54 | 0.0 | 0.0 | 0.00 | 0.00 | 0.00 | 65 | 1017.1 | |
| 20260502214516 | 55 | 0.0 | 0.0 | 0.00 | 0.00 | 0.00 | 65 | 1017.2 | |
| 20260502213615 | 55 | 0.0 | 0.0 | 0.00 | 0.00 | 0.00 | 65 | 1017.1 | |
| 20260502212609 | 56 | 0.0 | 0.0 | 0.00 | 0.00 | 0.00 | 62 | 1017.2 | |
| 20260502211606 | 57 | 0.0 | 0.0 | 0.00 | 0.00 | 0.00 | 62 | 1017.2 | |
| 20260502210602 | 57 | 0.0 | 0.0 | 0.00 | 0.00 | 0.00 | 62 | 1017.2 | |
| 20260502205558 | 57 | 0.0 | 0.0 | 0.00 | 0.00 | 0.00 | 64 | 1017.3 | |
| 20260502204557 | 58 | 0.0 | 0.0 | 0.00 | 0.00 | 0.00 | 61 | 1017.2 | |
| 20260502203553 | 59 | 0.0 | 0.0 | 0.00 | 0.00 | 0.00 | 59 | 1017.3 | |
| 20260502202550 | 59 | 0.0 | 0.0 | 0.00 | 0.00 | 0.00 | 59 | 1017.4 | |
| 20260502201544 | 59 | 0.0 | 0.0 | 0.00 | 0.00 | 0.00 | 59 | 1017.4 | |
| 20260502200541 | 61 | 0.0 | 0.0 | 0.00 | 0.00 | 0.00 | 57 | 1017.4 | |
| 20260502195537 | 62 | 203 | 0.0 | 2.0 | 0.00 | 0.00 | 0.00 | 53 | 1017.5 |
| 20260502194534 | 63 | 0.0 | 0.0 | 0.00 | 0.00 | 0.00 | 50 | 1017.4 | |
| 20260502193533 | 64 | 71 | 1.0 | 2.0 | 0.00 | 0.00 | 0.00 | 49 | 1017.4 |
| 20260502192526 | 64 | 203 | 0.0 | 2.0 | 0.00 | 0.00 | 0.00 | 50 | 1017.3 |
| 20260502191522 | 65 | 113 | 0.0 | 2.0 | 0.00 | 0.00 | 0.00 | 48 | 1017.3 |
| 20260502190521 | 65 | 0.0 | 0.0 | 0.00 | 0.00 | 0.00 | 49 | 1017.2 | |
| 20260502185518 | 67 | 72 | 1.0 | 2.0 | 0.00 | 0.00 | 0.00 | 46 | 1017.2 |
| 20260502184620 | 68 | 225 | 0.0 | 2.0 | 0.00 | 0.00 | 0.00 | 47 | 1017.1 |
| 20260502183611 | 70 | 0.0 | 2.0 | 0.00 | 0.00 | 0.00 | 42 | 1017.0 | |
| 20260502182604 | 71 | 0.0 | 0.0 | 0.00 | 0.00 | 0.00 | 40 | 1017.0 | |
| 20260502181600 | 74 | 0.0 | 0.0 | 0.00 | 0.00 | 0.00 | 35 | 1017.0 | |
| 20260502180558 | 76 | 225 | 0.0 | 2.0 | 0.00 | 0.00 | 0.00 | 30 | 1016.9 |
| 20260502163521 | 80 | 180 | 1.0 | 2.0 | 0.00 | 0.00 | 0.00 | 25 | 1017.5 |
| 20260502162518 | 80 | 172 | 1.0 | 4.0 | 0.00 | 0.00 | 0.00 | 24 | 1017.6 |
| 20260502161515 | 79 | 182 | 1.0 | 4.0 | 0.00 | 0.00 | 0.00 | 25 | 1017.8 |
| 20260502160612 | 80 | 182 | 4.0 | 8.0 | 0.00 | 0.00 | 0.00 | 24 | 1017.8 |
| 20260502151553 | 81 | 64 | 1.0 | 4.0 | 0.00 | 0.00 | 0.00 | 24 | 1018.2 |
| 20260502150550 | 82 | 73 | 2.0 | 6.0 | 0.00 | 0.00 | 0.00 | 23 | 1018.3 |
| 20260502130605 | 82 | 110 | 2.0 | 8.0 | 0.00 | 0.00 | 0.00 | 24 | 1019.9 |
| 20260502123553 | 81 | 212 | 3.0 | 7.0 | 0.00 | 0.00 | 0.00 | 23 | 1020.4 |
| 20260502122553 | 81 | 174 | 2.0 | 11.0 | 0.00 | 0.00 | 0.00 | 24 | 1020.4 |
| 20260502121547 | 80 | 164 | 0.0 | 4.0 | 0.00 | 0.00 | 0.00 | 24 | 1020.6 |
| 20260502120543 | 80 | 316 | 1.0 | 4.0 | 0.00 | 0.00 | 0.00 | 25 | 1020.8 |
| 20260502115541 | 79 | 59 | 1.0 | 4.0 | 0.00 | 0.00 | 0.00 | 26 | 1021.0 |
| 20260502114541 | 78 | 280 | 3.0 | 7.0 | 0.00 | 0.00 | 0.00 | 27 | 1021.0 |
| 20260502113533 | 77 | 185 | 3.0 | 8.0 | 0.00 | 0.00 | 0.00 | 27 | 1021.2 |
| 20260502112532 | 77 | 207 | 1.0 | 6.0 | 0.00 | 0.00 | 0.00 | 27 | 1021.4 |
| 20260502111525 | 78 | 232 | 1.0 | 4.0 | 0.00 | 0.00 | 0.00 | 26 | 1021.4 |
| 20260502110521 | 78 | 191 | 3.0 | 8.0 | 0.00 | 0.00 | 0.00 | 29 | 1021.6 |
| 20260502105518 | 77 | 214 | 0.0 | 4.0 | 0.00 | 0.00 | 0.00 | 31 | 1021.7 |
| 20260502104515 | 76 | 95 | 1.0 | 7.0 | 0.00 | 0.00 | 0.00 | 31 | 1021.7 |
| 20260502103614 | 75 | 198 | 3.0 | 15.0 | 0.00 | 0.00 | 0.00 | 32 | 1021.8 |
| 20260502102607 | 75 | 159 | 1.0 | 4.0 | 0.00 | 0.00 | 0.00 | 33 | 1022.1 |
| 20260502101602 | 73 | 201 | 4.0 | 9.0 | 0.00 | 0.00 | 0.00 | 35 | 1022.3 |
| 20260502100601 | 74 | 205 | 2.0 | 4.0 | 0.00 | 0.00 | 0.00 | 35 | 1022.5 |
| 20260502090536 | 69 | 194 | 2.0 | 7.0 | 0.00 | 0.00 | 0.00 | 41 | 1023.2 |
| 20260502070552 | 58 | 71 | 1.0 | 4.0 | 0.00 | 0.00 | 0.00 | 58 | 1024.2 |
| 20260502065549 | 56 | 113 | 1.0 | 4.0 | 0.00 | 0.00 | 0.00 | 62 | 1024.1 |
| 20260502064546 | 56 | 96 | 2.0 | 4.0 | 0.00 | 0.00 | 0.00 | 62 | 1024.1 |
| 20260502063547 | 56 | 113 | 1.0 | 2.0 | 0.00 | 0.00 | 0.00 | 62 | 1024.2 |
| 20260502062537 | 54 | 84 | 1.0 | 4.0 | 0.00 | 0.00 | 0.00 | 65 | 1024.3 |
| 20260502061536 | 52 | 95 | 1.0 | 2.0 | 0.00 | 0.00 | 0.00 | 69 | 1024.2 |
| 20260502060529 | 51 | 64 | 1.0 | 4.0 | 0.00 | 0.00 | 0.00 | 71 | 1024.3 |
| 20260502055528 | 51 | 68 | 0.0 | 2.0 | 0.00 | 0.00 | 0.00 | 70 | 1024.2 |
| 20260502054521 | 50 | 0.0 | 2.0 | 0.00 | 0.00 | 0.00 | 71 | 1024.3 | |
| 20260502053520 | 48 | 0.0 | 0.0 | 0.00 | 0.00 | 0.00 | 74 | 1024.4 | |
| 20260502052617 | 46 | 0.0 | 0.0 | 0.00 | 0.00 | 0.00 | 77 | 1024.3 | |
| 20260502051611 | 48 | 0.0 | 0.0 | 0.00 | 0.00 | 0.00 | 73 | 1024.4 | |
| 20260502050610 | 48 | 0.0 | 0.0 | 0.00 | 0.00 | 0.00 | 73 | 1024.3 | |
| 20260502045603 | 47 | 0.0 | 0.0 | 0.00 | 0.00 | 0.00 | 72 | 1024.2 | |
| 20260502044559 | 43 | 0.0 | 0.0 | 0.00 | 0.00 | 0.00 | 82 | 1024.3 | |
| 20260502043603 | 40 | 0.0 | 0.0 | 0.00 | 0.00 | 0.00 | 85 | 1024.3 | |
| 20260502042552 | 39 | 0.0 | 0.0 | 0.00 | 0.00 | 0.00 | 87 | 1024.4 | |
| 20260502041549 | 40 | 0.0 | 0.0 | 0.00 | 0.00 | 0.00 | 88 | 1024.3 | |
| 20260502040545 | 39 | 0.0 | 0.0 | 0.00 | 0.00 | 0.00 | 88 | 1024.3 | |
| 20260502035545 | 39 | 0.0 | 0.0 | 0.00 | 0.00 | 0.00 | 87 | 1024.3 | |
| 20260502034539 | 40 | 0.0 | 0.0 | 0.00 | 0.00 | 0.00 | 85 | 1024.4 | |
| 20260502033538 | 41 | 0.0 | 0.0 | 0.00 | 0.00 | 0.00 | 86 | 1024.4 | |
| 20260502032534 | 40 | 0.0 | 0.0 | 0.00 | 0.00 | 0.00 | 86 | 1024.5 | |
| 20260502031530 | 40 | 0.0 | 0.0 | 0.00 | 0.00 | 0.00 | 85 | 1024.4 | |
| 20260502030526 | 40 | 0.0 | 0.0 | 0.00 | 0.00 | 0.00 | 85 | 1024.7 | |
| 20260502025523 | 41 | 0.0 | 0.0 | 0.00 | 0.00 | 0.00 | 84 | 1024.6 | |
| 20260502024520 | 41 | 0.0 | 0.0 | 0.00 | 0.00 | 0.00 | 84 | 1024.6 | |
| 20260502023616 | 42 | 0.0 | 0.0 | 0.00 | 0.00 | 0.00 | 83 | 1024.7 | |
| 20260502022609 | 42 | 0.0 | 0.0 | 0.00 | 0.00 | 0.00 | 84 | 1024.8 | |
| 20260502021605 | 42 | 0.0 | 0.0 | 0.00 | 0.00 | 0.00 | 83 | 1024.8 | |
| 20260502020603 | 43 | 0.0 | 0.0 | 0.00 | 0.00 | 0.00 | 81 | 1024.8 | |
| 20260502015559 | 43 | 0.0 | 0.0 | 0.00 | 0.00 | 0.00 | 81 | 1024.8 | |
| 20260502014555 | 44 | 0.0 | 0.0 | 0.00 | 0.00 | 0.00 | 81 | 1024.8 | |
| 20260502013549 | 44 | 0.0 | 0.0 | 0.00 | 0.00 | 0.00 | 80 | 1024.9 |